[[{"header":{"parameterUnit":"m.s-1","parameterCategory":1,"la1":30.2991,"la2":30.254,"lo1":-89.0895,"lo2":-89.0444,"dy":0.0017,"dx":0.0017,"nx":28,"ny":28,"refTime":"2024-05-22T21:00:00:Z","depth":0,"parameterNumber":2,"parameterNumberName":"U-component_of_WINDS"},"data":[0,0,0,0,0,0,0,0,0,0,0,0,0,0,0,0,0,0,0,0,0,0,0,0,0,0,0,0,0,0,0,0,0,0,0,0,0,0,0,0,0,0,0,0,0,0,0,0,0,0,0,0,0,0,0,0,0,0,-0.7612,-0.7612,0,-0.7603,-0.7603,-0.7603,-0.7597,-0.7597,-0.7597,-0.7597,-0.7588,-0.7588,-0.7588,0,0,0,0,0,0,0,0,0,0,0,0,0,-0.7624,-0.7624,-0.7612,-0.7612,-0.7612,-0.7603,-0.7603,-0.7603,-0.7597,-0.7597,-0.7597,-0.7597,-0.7588,-0.7588,-0.7588,0,0,0,0,0,0,0,0,0,0,0,0,0,-0.7617,-0.7624,-0.7612,-0.7608,-0.7607,-0.7603,-0.7603,-0.7603,-0.7597,-0.7597,-0.7597,-0.7597,-0.7588,-0.7588,-0.7588,-0.7587,0,0,-0.7587,-0.7586,0,0,0,0,0,0,0,0,-0.7618,-0.7617,-0.7609,-0.7608,-0.7608,-0.7601,-0.7604,-0.7598,-0.7597,-0.7601,-0.7597,-0.7597,-0.7592,-0.7592,-0.759,-0.7586,-0.7586,-0.7587,-0.7586,-0.7586,-0.7586,0,0,0,0,0,0,0,-0.7618,-0.7617,-0.7609,-0.7609,-0.7608,-0.7607,-0.7606,-0.7603,-0.7597,-0.7601,-0.76,-0.7599,-0.7592,-0.7591,-0.759,-0.7586,-0.7587,-0.7586,-0.7586,-0.7586,-0.7582,-0.7582,0,0,0,0,0,0,-0.7619,-0.7618,-0.7609,-0.7608,-0.7613,-0.7606,-0.7605,-0.7603,-0.7597,-0.7596,-0.76,-0.7599,-0.7591,-0.759,-0.759,-0.7589,-0.7586,-0.7586,-0.7586,-0.7582,-0.7582,-0.7582,0,0,0,0,0,0,-0.762,-0.7619,-0.7609,-0.7613,-0.7612,-0.7606,-0.7604,-0.7603,-0.7602,-0.7596,-0.7595,-0.7599,-0.7591,-0.759,-0.7588,-0.7588,-0.7586,-0.7586,-0.7582,-0.7582,-0.7582,-0.7587,0,0,0,0,0,0,-0.762,-0.7619,-0.7618,-0.7613,-0.7611,-0.7607,-0.7604,-0.7603,-0.7601,-0.7601,-0.7595,-0.7595,-0.7591,-0.7588,-0.7587,-0.7588,-0.7585,-0.7581,-0.7582,-0.7582,-0.7587,-0.7587,-0.7588,0,0,0,0,0,-0.762,-0.762,-0.7618,-0.7617,-0.7611,-0.7607,-0.7607,-0.7603,-0.7601,-0.7601,-0.7598,-0.7595,-0.7589,-0.7588,-0.7587,-0.7588,-0.7581,-0.7582,-0.7582,-0.7586,-0.7587,-0.7588,0,0,0,0,0,0,-0.7625,-0.7619,-0.7617,-0.7615,-0.7612,-0.7606,-0.7606,-0.7603,-0.76,-0.76,-0.7595,-0.7594,-0.7592,-0.759,-0.7589,-0.7587,-0.7585,-0.7585,-0.7589,-0.7589,-0.759,-0.759,-0.7585,0,0,0,0,0,-0.7626,-0.7624,-0.7619,-0.7617,-0.7616,-0.7611,-0.7609,-0.7607,-0.7603,-0.7602,-0.7598,-0.7595,-0.7592,-0.7591,-0.7588,-0.7586,-0.7585,-0.7586,-0.7587,-0.7587,-0.7587,-0.7587,-0.7587,-0.7582,-0.7582,-0.7582,0,0,-0.7628,-0.7624,-0.7623,-0.7618,-0.7615,-0.7613,-0.761,-0.7608,-0.7606,-0.7601,-0.7599,-0.7596,-0.7592,-0.7591,-0.759,-0.7588,-0.7588,-0.7587,-0.7588,-0.7588,-0.7587,-0.7587,-0.7588,-0.7582,-0.7582,-0.7582,0,0,-0.7629,-0.7626,-0.7625,-0.7623,-0.7619,-0.7616,-0.7615,-0.7611,-0.7609,-0.7606,-0.7603,-0.7601,-0.7597,-0.7594,-0.7592,-0.7594,-0.7591,-0.7593,-0.7596,-0.7595,-0.7596,-0.7596,-0.7597,-0.7597,-0.7593,-0.7593,-0.7593,0,-0.7632,-0.7629,-0.7625,-0.7623,-0.7621,-0.7617,-0.7616,-0.7614,-0.7609,-0.7608,-0.7606,-0.7601,-0.7598,-0.7596,-0.7596,-0.7595,-0.7595,-0.7594,-0.7596,-0.7596,-0.7596,-0.7597,-0.7598,-0.7594,-0.7593,-0.7593,-0.7593,0,-0.7632,-0.763,-0.7629,-0.7625,-0.7623,-0.7622,-0.7618,-0.7616,-0.7614,-0.7611,-0.7609,-0.7606,-0.7602,-0.7602,-0.7599,-0.7599,-0.7599,-0.7597,-0.7594,-0.7597,-0.7598,-0.7598,-0.7594,-0.7594,-0.7594,-0.7594,0,0,-0.7636,-0.763,-0.763,-0.7628,-0.7624,-0.7622,-0.7621,-0.7618,-0.7617,-0.7614,-0.7613,-0.761,-0.7608,-0.7606,-0.7603,-0.7603,-0.7605,-0.7601,-0.7601,-0.7602,-0.7605,-0.7607,-0.7607,-0.7603,-0.7603,-0.7603,-0.7606,0,-0.7637,-0.7634,-0.7631,-0.763,-0.7628,-0.7624,-0.7623,-0.762,-0.7618,-0.7616,-0.7614,-0.7611,-0.7609,-0.7608,-0.7608,-0.7605,-0.7605,-0.7605,-0.7602,-0.7602,-0.7603,-0.7607,-0.7609,-0.7611,-0.7606,-0.7606,-0.7606,0,-0.7638,-0.7636,-0.7634,-0.763,-0.763,-0.7628,-0.7626,-0.7624,-0.7621,-0.762,-0.7618,-0.7615,-0.7614,-0.7612,-0.761,-0.7609,-0.7608,-0.7607,-0.7607,-0.7606,-0.7604,-0.7607,-0.7612,-0.7612,-0.7606,-0.7606,-0.7606,0,-0.7641,-0.7638,-0.7636,-0.7635,-0.7631,-0.763,-0.7628,-0.7626,-0.7624,-0.7622,-0.7621,-0.7619,-0.7617,-0.7615,-0.7612,-0.7611,-0.7611,-0.7609,-0.7609,-0.761,-0.7609,-0.7609,-0.7614,-0.7609,-0.7609,-0.7609,-0.7609,0,-0.7643,-0.7642,-0.7638,-0.7637,-0.7636,-0.7633,-0.7632,-0.763,-0.7627,-0.7626,-0.7623,-0.7622,-0.7618,-0.7617,-0.7614,-0.7613,-0.7612,-0.7611,-0.7611,-0.7611,-0.7612,-0.7611,-0.761,-0.7609,-0.7609,-0.7609,-0.7609,0,-0.7647,-0.7644,-0.7642,-0.7638,-0.7637,-0.7637,-0.7634,-0.7633,-0.7631,-0.7629,-0.7629,-0.7625,-0.7623,-0.762,-0.7617,-0.7616,-0.7615,-0.7614,-0.7616,-0.7616,-0.7617,-0.7617,-0.7621,-0.7622,-0.7616,-0.7616,-0.7616,0,-0.7648,-0.7647,-0.7644,-0.7643,-0.7641,-0.764,-0.7638,-0.7635,-0.7634,-0.7631,-0.7631,-0.7629,-0.7627,-0.7624,-0.7622,-0.762,-0.7618,-0.762,-0.7618,-0.7619,-0.7619,-0.7619,-0.7619,-0.762,-0.762,-0.762,-0.7621,0,-0.765,-0.7649,-0.7647,-0.7646,-0.7644,-0.7642,-0.7641,-0.764,-0.7636,-0.7635,-0.7634,-0.7632,-0.763,-0.7628,-0.7626,-0.7624,-0.7622,-0.7621,-0.7621,-0.7622,-0.7624,-0.7623,-0.7618,-0.7621,-0.7621,-0.7621,-0.7621,-0.7621,-0.7653,-0.7652,-0.765,-0.7648,-0.7647,-0.7645,-0.7644,-0.7642,-0.7641,-0.7639,-0.7637,-0.7636,-0.7633,-0.763,-0.7628,-0.7627,-0.7626,-0.7626,-0.7626,-0.7627,-0.7627,-0.7624,-0.7627,-0.7627,-0.7627,-0.7627,-0.7627,0,-0.7655,-0.7654,-0.7652,-0.765,-0.7649,-0.7647,-0.7645,-0.7645,-0.7643,-0.7642,-0.764,-0.7638,-0.7637,-0.7634,-0.7633,-0.7632,-0.7631,-0.7632,-0.7632,-0.7632,-0.7628,-0.7628,-0.7633,-0.7633,-0.7633,-0.7633,-0.7633,-0.7633,-0.7657,-0.7656,-0.7654,-0.7653,-0.7651,-0.765,-0.7649,-0.7648,-0.7646,-0.7645,-0.7644,-0.7642,-0.764,-0.7638,-0.7637,-0.7636,-0.7636,-0.7637,-0.7636,-0.7632,-0.7632,-0.7631,-0.7631,-0.7637,-0.7637,-0.7639,-0.7639,-0.7639]},{"header":{"parameterUnit":"m.s-1","parameterCategory":1,"la1":30.2991,"la2":30.254,"lo1":-89.0895,"lo2":-89.0444,"dy":0.0017,"dx":0.0017,"nx":28,"ny":28,"refTime":"2024-05-22T21:00:00:Z","depth":0,"parameterNumber":3,"parameterNumberName":"V-component_of_WINDS"},"data":[0,0,0,0,0,0,0,0,0,0,0,0,0,0,0,0,0,0,0,0,0,0,0,0,0,0,0,0,0,0,0,0,0,0,0,0,0,0,0,0,0,0,0,0,0,0,0,0,0,0,0,0,0,0,0,0,0,0,4.323,4.323,0,4.3227,4.3227,4.3227,4.3135,4.3133,4.3131,4.3128,4.3126,4.3128,4.313,0,0,0,0,0,0,0,0,0,0,0,0,0,4.3157,4.3159,4.323,4.323,4.323,4.3227,4.3227,4.3227,4.3136,4.3133,4.313,4.3127,4.3126,4.3128,4.3131,0,0,0,0,0,0,0,0,0,0,0,0,0,4.3175,4.316,4.323,4.3184,4.318,4.3227,4.3227,4.3227,4.3136,4.3133,4.3129,4.3126,4.3125,4.3128,4.3131,4.3222,0,0,4.3141,4.3142,0,0,0,0,0,0,0,0,4.3174,4.3178,4.3191,4.3187,4.3183,4.3178,4.32,4.3225,4.3137,4.3153,4.3128,4.3124,4.3146,4.3148,4.3155,4.3222,4.3222,4.3141,4.3143,4.3145,4.3145,0,0,0,0,0,0,0,4.3173,4.3178,4.3229,4.3191,4.3186,4.3164,4.3162,4.3205,4.317,4.3151,4.3145,4.3146,4.3144,4.3152,4.3154,4.3222,4.3141,4.3144,4.3146,4.3147,4.3363,4.3366,0,0,0,0,0,0,4.3178,4.3177,4.3229,4.3229,4.317,4.3168,4.3166,4.3183,4.3169,4.3163,4.3149,4.3141,4.3148,4.3151,4.3154,4.3259,4.3144,4.3148,4.3149,4.3359,4.3363,4.3368,0,0,0,0,0,0,4.3177,4.3184,4.3229,4.3201,4.3205,4.3173,4.3193,4.3185,4.3193,4.3167,4.316,4.3164,4.3146,4.3149,4.3205,4.3257,4.3149,4.3152,4.3354,4.336,4.3365,4.347,0,0,0,0,0,0,4.3175,4.3184,4.3218,4.3203,4.3207,4.3281,4.3196,4.3188,4.3199,4.3189,4.3179,4.3174,4.3143,4.3201,4.3209,4.326,4.3154,4.335,4.3357,4.3364,4.3462,4.3479,4.3493,0,0,0,0,0,4.3173,4.3248,4.322,4.3227,4.3249,4.3284,4.3287,4.3249,4.3204,4.3238,4.3221,4.3175,4.3251,4.3208,4.3215,4.3268,4.3346,4.3355,4.3363,4.3455,4.3476,4.3493,0,0,0,0,0,0,4.3271,4.3245,4.3214,4.3286,4.3288,4.3269,4.3311,4.3272,4.3287,4.3278,4.3231,4.3229,4.3293,4.3286,4.3239,4.3355,4.329,4.3301,4.3357,4.3377,4.3392,4.3392,4.3157,0,0,0,0,0,4.3301,4.3331,4.3307,4.3373,4.3376,4.3344,4.3357,4.3328,4.3328,4.3329,4.3316,4.3318,4.3342,4.3359,4.338,4.3461,4.3457,4.3501,4.3516,4.3529,4.3539,4.3581,4.36,4.3396,4.3395,4.3395,0,0,4.3363,4.3353,4.3375,4.3393,4.3391,4.3424,4.3345,4.3383,4.3407,4.3334,4.3387,4.3377,4.3376,4.3445,4.3475,4.3442,4.3594,4.354,4.3551,4.3553,4.3591,4.3611,4.3628,4.3401,4.34,4.3399,0,0,4.3493,4.3489,4.3543,4.3542,4.354,4.3518,4.3531,4.3518,4.3508,4.356,4.3506,4.3534,4.3577,4.3578,4.3585,4.3715,4.3673,4.3723,4.3804,4.3846,4.3862,4.3876,4.3922,4.3939,4.3733,4.3733,4.3733,0,4.3571,4.3618,4.3576,4.3617,4.3626,4.3562,4.3617,4.3618,4.3623,4.3631,4.3594,4.3646,4.3641,4.3709,4.374,4.3748,4.3761,4.3724,4.3863,4.3877,4.3889,4.3932,4.395,4.3739,4.3738,4.3738,4.3737,0,4.3714,4.3747,4.3791,4.3797,4.3811,4.3859,4.3824,4.3844,4.3813,4.3795,4.3848,4.384,4.3857,4.3871,4.3842,4.3935,4.3915,4.3871,4.3804,4.3915,4.3955,4.3972,4.3748,4.3746,4.3744,4.3742,0,0,4.3906,4.3887,4.3904,4.3905,4.3898,4.3923,4.3968,4.3985,4.4002,4.4008,4.4044,4.4082,4.4041,4.4048,4.4019,4.4055,4.4158,4.4006,4.4005,4.4035,4.426,4.4293,4.4313,4.413,4.4133,4.4136,4.426,0,4.4031,4.4106,4.4069,4.4149,4.4179,4.4118,4.4157,4.4157,4.4141,4.4165,4.4147,4.4174,4.4118,4.4122,4.4156,4.4139,4.4203,4.4129,4.4164,4.4165,4.4166,4.4334,4.4369,4.4486,4.4275,4.4278,4.428,0,4.4188,4.4199,4.4282,4.4268,4.4279,4.4315,4.4327,4.435,4.4349,4.4334,4.4343,4.4304,4.4347,4.4282,4.434,4.4291,4.4303,4.4297,4.43,4.4302,4.4229,4.434,4.4523,4.4541,4.4304,4.4302,4.43,0,4.4319,4.4355,4.4409,4.4412,4.4398,4.4424,4.442,4.4414,4.4427,4.4438,4.4445,4.4461,4.447,4.4483,4.445,4.4406,4.4513,4.4445,4.4503,4.4504,4.4528,4.4527,4.4716,4.4537,4.4536,4.4536,4.4536,0,4.4463,4.4516,4.4468,4.4501,4.4558,4.4515,4.4573,4.4562,4.4558,4.4588,4.4536,4.4566,4.452,4.4545,4.452,4.4572,4.4576,4.4566,4.4559,4.4571,4.4572,4.4578,4.4569,4.4541,4.454,4.4539,4.4538,0,4.4619,4.4589,4.4644,4.4626,4.4622,4.4665,4.4649,4.4679,4.466,4.4698,4.4705,4.4675,4.4701,4.4669,4.4693,4.4676,4.4747,4.4728,4.4748,4.4742,4.4802,4.4796,4.5,4.5025,4.483,4.4832,4.4834,0,4.4713,4.4752,4.4738,4.4754,4.4752,4.4779,4.4791,4.475,4.4765,4.4766,4.4796,4.4818,4.4833,4.4878,4.4859,4.4877,4.4857,4.4927,4.4859,4.487,4.4858,4.4856,4.4859,4.4941,4.4944,4.4945,4.4947,0,4.4883,4.4866,4.4885,4.4899,4.4915,4.4924,4.493,4.4946,4.4903,4.4923,4.4949,4.4961,4.4985,4.5007,4.502,4.5015,4.4974,4.4968,4.4983,4.4995,4.5005,4.5,4.4785,4.4964,4.4962,4.4961,4.496,4.4959,4.501,4.5042,4.5037,4.506,4.5059,4.5066,4.5093,4.5076,4.5097,4.5113,4.5088,4.5121,4.5117,4.513,4.513,4.5155,4.5125,4.5146,4.5151,4.5157,4.5165,4.5001,4.5157,4.5156,4.5156,4.5155,4.5155,0,4.5177,4.517,4.5192,4.5201,4.5219,4.5178,4.5182,4.52,4.523,4.523,4.5246,4.5276,4.5297,4.5279,4.5297,4.5321,4.5302,4.5327,4.5324,4.5324,4.5191,4.5177,4.5341,4.5341,4.5341,4.5341,4.5341,4.5341,4.5266,4.5317,4.5299,4.535,4.5343,4.5374,4.538,4.5385,4.5385,4.5421,4.5438,4.5426,4.5419,4.5435,4.5453,4.5447,4.5456,4.5487,4.5475,4.5352,4.5333,4.5316,4.5302,4.549,4.549,4.5605,4.5606,4.5607]}]]